Wind_Speed
79 80 81 82 81 82 86 82 83 80 76 75 77 74 74 74 73 71 69 71 70 70 68 68 71 70 66 70 74 64 70 73 76 74 77 80 83 80 80 78 79 77 80 82 85 91 90
85 83 90 87 91 85 85 85 85 80 79 79 78 80 78 75 74 74 74 72 75 73 71 70 69 70 66 72 70 71 74 74 75 80 81 83 79 81 85 85 82 81 83 89 88 85 84
99 93 91 92 89 87 81 83 83 83 81 81 80 81 83 81 78 77 78 78 78 78 77 77 74 73 76 79 73 72 72 72 77 83 87 83 84 83 84 84 84 82 88 88 89 92 90
103 101 93 91 90 91 88 88 86 84 83 82 82 82 83 81 81 79 80 81 79 82 83 80 78 79 81 77 77 76 78 78 81 85 87 87 87 85 88 85 86 86 86 85 92 98 86
106 107 100 92 92 90 90 88 91 88 84 88 90 89 87 85 83 80 79 80 83 82 86 83 84 84 80 79 82 84 84 87 77 80 86 85 83 88 89 87 82 88 87 94 97 93 83
109 109 111 106 97 89 89 90 90 91 89 89 92 93 89 89 83 84 86 81 80 81 87 88 84 87 88 90 87 84 90 85 75 79 81 83 83 80 85 80 86 95 94 100 99 90 84
114 111 109 105 111 98 97 90 89 88 91 92 91 89 90 91 89 83 84 86 85 81 81 85 87 87 89 91 90 92 88 78 76 78 85 86 81 85 87 91 96 96 102 103 94 84 80
121 120 116 112 113 107 98 99 95 93 93 92 91 87 87 87 87 87 84 82 87 87 86 83 87 92 92 93 92 100 90 83 85 83 83 83 81 88 91 94 94 98 102 93 84 80 78
125 126 127 123 119 114 113 108 105 101 97 95 92 91 88 89 88 86 87 87 87 86 86 89 92 91 94 95 98 92 91 89 85 86 87 87 91 95 93 96 100 101 101 88 79 74 68
121 122 120 122 119 116 111 109 105 107 104 103 101 100 96 93 93 92 89 91 90 89 86 89 93 94 97 99 93 92 93 90 87 93 94 94 96 96 97 97 102 98 92 84 75 67 59
115 116 119 123 123 122 117 114 108 107 110 108 108 107 103 99 98 96 96 96 95 94 97 94 95 99 99 98 94 92 95 95 99 95 100 100 96 99 101 102 97 89 79 73 69 59 49
95 96 98 103 108 109 120 117 116 116 115 112 112 110 111 107 106 104 100 101 102 100 101 101 101 98 98 100 99 95 98 100 103 103 106 103 102 100 99 97 91 85 77 67 60 53 41
74 78 82 84 88 91 96 98 102 104 113 114 115 113 115 111 112 108 106 105 105 107 107 104 102 103 102 103 103 101 100 105 106 108 108 108 104 105 102 88 85 77 73 59 53 44 38
66 65 69 73 76 78 80 80 83 89 96 106 111 114 114 113 109 112 110 108 107 109 107 105 104 106 106 107 109 108 103 104 110 110 109 108 104 105 93 83 77 71 68 57 43 42 35
59 63 62 62 55 61 68 68 70 73 79 88 96 99 101 105 106 104 102 104 106 108 110 108 107 104 108 109 105 100 100 107 106 101 99 100 90 94 89 79 65 62 56 55 39 41 34
52 55 54 50 48 53 57 59 62 64 69 73 77 85 91 94 96 98 85 85 89 89 91 93 93 89 92 93 98 101 103 104 100 95 94 96 77 81 79 70 58 57 53 48 43 40 37
48 49 48 45 47 50 54 55 58 60 65 71 75 79 82 83 77 77 79 76 78 83 81 77 77 77 81 87 90 91 89 93 97 93 93 85 74 66 73 66 53 51 46 44 43 38 38
45 47 46 45 43 46 48 49 54 59 64 70 78 79 80 72 72 76 77 78 81 77 74 74 75 78 81 82 83 89 92 90 88 87 82 80 66 50 54 62 49 48 48 41 38 40 40
42 45 45 45 43 44 45 46 50 54 59 63 71 73 75 74 75 74 70 68 70 70 69 73 78 83 82 86 86 86 83 82 80 81 76 70 59 48 44 54 54 43 46 42 40 40 42
43 44 42 43 42 40 42 44 46 47 54 59 62 63 72 73 63 62 62 64 68 70 72 75 80 84 83 84 79 76 77 76 76 71 65 58 55 48 42 51 54 45 47 45 42 44 46
42 41 40 40 40 40 41 43 46 47 49 51 57 57 58 59 62 64 64 64 71 72 73 75 77 78 79 75 73 74 73 69 68 64 60 53 51 43 42 51 52 45 44 49 47 47 49
41 40 41 41 40 39 39 40 43 45 46 50 51 51 56 57 59 64 64 67 70 71 70 71 71 71 71 69 69 69 64 61 59 59 55 49 48 41 45 50 45 38 46 49 50 50 50
41 42 40 40 39 39 40 40 39 43 45 50 50 54 60 58 60 63 67 66 65 66 66 63 62 60 60 62 62 59 55 56 54 53 51 45 43 37 44 46 39 36 48 48 47 51 52
41 40 40 40 40 41 41 40 41 43 43 46 50 53 54 56 55 58 58 58 60 62 60 57 55 56 56 57 56 53 52 51 49 49 44 41 37 36 39 36 31 45 44 48 48 50 57
40 40 41 41 41 40 38 39 40 41 43 45 46 48 50 50 49 51 53 54 54 51 49 51 52 52 53 53 51 49 48 47 45 41 38 33 32 30 29 27 38 42 41 49 49 52 61
41 41 41 40 41 39 38 38 39 40 42 42 43 44 43 43 43 44 45 45 44 45 46 48 51 50 48 47 45 44 42 41 37 35 31 28 25 24 23 26 35 41 45 46 51 50 54
42 41 41 41 39 39 39 39 38 38 38 39 39 38 37 38 39 39 39 39 41 43 44 45 46 46 46 44 44 40 37 37 32 29 26 23 19 22 26 33 44 47 51 50 53 52 52
44 42 41 39 38 38 38 37 37 37 38 37 37 36 35 35 34 34 35 38 40 41 41 42 43 43 42 41 38 34 30 32 28 26 23 21 20 23 30 38 44 46 47 48 52 54 50
47 43 41 39 37 36 37 37 36 35 33 34 33 33 33 33 33 33 34 36 38 39 39 41 41 40 37 36 32 30 27 27 25 24 23 22 23 27 33 38 40 39 38 34 47 50 46
Wind_Direction
273 270 273 274 272 273 272 270 271 273 274 270 271 272 273 273 275 274 273 271 272 272 268 266 268 272 278 273 274 277 280 279 276 278 282 287 286 285 286 288 288 289 289 290 288 287 281
273 273 276 275 270 269 271 272 269 269 268 269 269 270 272 273 273 271 271 271 271 268 269 267 269 273 273 276 276 276 278 276 277 279 282 281 282 285 285 285 288 290 290 289 291 292 287
276 271 274 272 268 268 268 268 268 267 266 267 266 266 269 271 270 269 269 270 270 268 268 269 268 270 274 274 273 275 279 280 283 281 279 282 282 285 286 289 289 287 289 290 296 295 293
276 269 272 270 274 273 264 264 264 264 264 261 264 265 266 267 269 269 270 268 267 265 267 268 267 269 271 274 272 274 279 285 282 284 285 286 283 286 287 287 288 289 290 294 297 293 289
273 272 269 267 274 272 266 262 260 259 261 262 260 262 264 265 268 267 267 269 269 268 266 266 266 267 268 272 275 278 280 288 281 283 282 281 281 282 284 285 289 293 295 293 293 292 290
271 268 266 264 266 269 262 261 259 258 260 260 259 260 261 263 265 265 267 268 270 271 268 267 268 268 269 272 277 279 284 286 281 279 281 278 280 281 285 291 294 294 294 292 299 295 291
274 271 268 268 267 262 259 259 257 260 257 258 261 262 263 263 266 265 266 268 266 269 270 268 269 267 268 271 275 282 287 286 289 280 279 281 284 286 292 291 292 294 297 299 296 294 289
270 269 269 268 267 264 259 259 260 259 259 260 262 261 264 263 265 265 267 265 267 268 269 271 270 267 271 272 277 282 290 291 285 289 285 285 283 285 288 291 294 294 297 295 293 293 291
266 265 266 266 265 264 264 260 262 261 264 263 263 263 261 264 263 265 267 268 267 268 269 270 270 269 272 275 281 286 287 287 285 287 286 285 281 287 290 293 294 297 299 293 293 290 289
264 265 262 262 262 262 260 258 258 261 264 265 264 263 265 264 264 265 266 267 269 270 268 270 272 272 274 280 284 282 283 283 285 281 285 285 286 289 292 292 296 298 296 294 292 291 286
264 263 263 262 260 258 257 256 254 257 258 261 262 264 264 264 264 265 266 266 267 268 270 271 274 277 280 281 281 279 279 279 284 281 283 285 286 288 292 294 297 297 292 290 290 288 284
264 263 263 262 259 256 257 256 256 257 256 258 259 260 262 264 264 264 265 267 267 268 271 274 275 276 275 276 278 278 279 280 281 282 282 284 287 290 292 295 298 296 294 292 288 284 278
265 263 262 261 260 258 256 256 256 252 252 254 255 257 259 261 263 263 265 264 266 268 270 271 274 274 274 275 277 277 276 278 278 279 281 284 288 290 294 298 295 292 291 290 286 280 267
265 263 261 258 258 258 256 254 254 253 250 251 251 253 255 256 260 263 264 263 265 266 268 270 270 271 273 272 274 277 277 274 274 277 279 281 285 290 294 295 294 294 289 285 278 270 260
263 261 259 260 260 255 252 250 251 251 247 246 250 252 254 257 261 263 265 261 264 267 266 266 268 270 270 274 275 275 276 277 280 281 280 284 291 291 294 290 291 288 281 277 270 262 246
261 260 261 262 255 251 251 248 245 244 244 245 249 249 251 256 260 264 265 264 264 264 264 267 268 268 269 271 272 273 277 279 282 285 287 289 290 292 290 288 286 280 277 272 263 252 233
259 258 258 256 255 252 252 251 243 241 238 239 241 247 253 256 258 263 263 262 263 266 268 269 270 270 270 271 272 274 275 278 284 287 288 287 289 287 287 287 284 278 272 267 259 245 228
255 255 254 252 252 249 247 242 239 240 237 234 240 241 250 254 255 260 261 263 268 268 271 273 274 275 276 275 276 279 282 283 285 285 287 287 287 282 282 281 275 268 263 257 246 237 224
249 247 248 249 249 247 245 243 242 241 240 241 245 247 250 253 259 260 261 261 263 265 266 269 269 272 274 277 280 281 283 285 285 286 286 285 286 281 274 271 269 263 255 252 239 236 218
249 246 245 247 247 243 242 241 240 241 242 242 246 246 249 253 252 254 256 259 260 263 267 268 269 273 277 280 280 282 283 284 285 285 285 284 283 279 271 263 262 254 247 240 231 227 219
246 245 242 242 246 242 239 237 239 238 241 242 243 244 245 250 252 254 259 260 264 267 269 270 272 275 278 279 281 282 282 283 286 285 285 283 282 279 268 260 259 253 243 238 229 225 222
242 243 239 240 241 242 241 237 238 236 237 241 242 244 249 251 252 254 257 261 265 266 270 273 277 275 276 280 280 280 283 285 284 286 285 285 282 276 266 261 258 246 237 234 229 220 223
236 238 237 236 238 240 241 241 240 240 240 242 247 248 251 255 258 259 262 265 267 270 274 275 276 279 279 278 280 282 285 286 286 285 286 284 279 272 260 255 249 239 230 227 226 222 221
234 235 234 234 235 237 239 241 241 242 243 246 251 254 256 257 259 261 265 267 271 271 273 276 278 277 277 279 283 286 286 285 286 286 287 284 276 263 256 253 234 228 225 223 223 215 212
233 233 232 232 234 237 239 240 242 245 248 250 252 253 255 258 260 262 266 268 271 271 274 275 275 276 278 281 284 287 287 288 287 289 285 278 267 259 248 234 221 224 219 218 220 216 216
230 232 231 232 235 236 237 240 242 244 246 249 251 253 257 261 263 265 263 266 269 271 273 274 276 281 282 282 282 285 287 285 285 281 274 266 255 245 226 220 215 215 214 214 220 220 221
229 230 231 231 233 234 237 238 240 243 247 249 253 257 260 261 262 262 265 268 269 270 272 275 279 281 283 286 287 289 289 286 285 281 271 257 242 230 214 206 212 216 219 212 216 219 222
230 230 231 231 233 235 236 239 241 243 245 248 252 255 258 258 260 263 265 268 269 272 274 276 278 280 284 285 286 287 285 283 277 269 264 252 235 223 217 214 216 220 224 217 219 220 222
228 231 233 234 234 235 236 237 240 242 245 249 252 254 257 259 261 265 268 270 272 275 278 281 282 284 286 287 288 285 279 274 269 263 260 254 241 226 222 220 222 228 232 233 223 224 226
Height
10678 10678 10679 10680 10681 10681 10680 10682 10683 10683 10683 10683 10683 10683 10683 10683 10683 10681 10681 10682 10681 10680 10680 10680 10681 10682 10684 10683 10679 10686 10680 10681 10677 10674 10672 10669 10667 10664 10663 10661 10657 10655 10651 10651 10648 10643 10638
10656 10657 10656 10656 10660 10661 10660 10660 10662 10664 10665 10664 10664 10665 10666 10664 10664 10664 10664 10665 10664 10662 10663 10665 10666 10668 10669 10663 10673 10667 10664 10666 10665 10661 10657 10654 10651 10648 10647 10644 10640 10633 10634 10631 10627 10621 10613
10630 10632 10634 10634 10635 10639 10639 10640 10641 10642 10644 10645 10644 10645 10646 10646 10645 10645 10646 10648 10648 10646 10646 10648 10650 10653 10652 10648 10653 10654 10645 10647 10645 10643 10639 10636 10632 10629 10627 10625 10620 10615 10616 10611 10605 10596 10592
10602 10606 10608 10609 10610 10614 10617 10618 10619 10620 10623 10624 10625 10625 10625 10625 10626 10626 10627 10628 10628 10628 10629 10632 10635 10636 10632 10635 10632 10634 10633 10629 10627 10624 10620 10616 10615 10612 10609 10606 10600 10597 10593 10590 10585 10574 10572
10573 10575 10581 10584 10587 10589 10592 10594 10595 10598 10600 10602 10602 10603 10603 10605 10606 10607 10608 10608 10608 10609 10611 10614 10616 10619 10615 10614 10615 10615 10616 10613 10609 10607 10603 10599 10598 10596 10589 10585 10585 10571 10578 10566 10574 10551 10545
10542 10543 10549 10557 10560 10562 10566 10569 10571 10574 10575 10577 10577 10580 10583 10584 10585 10587 10587 10589 10590 10589 10590 10592 10598 10598 10599 10599 10597 10597 10597 10594 10591 10590 10584 10582 10582 10577 10568 10568 10567 10559 10548 10545 10538 10534 10519
10508 10513 10515 10521 10529 10532 10536 10542 10546 10548 10549 10551 10556 10558 10560 10563 10564 10564 10566 10571 10570 10572 10570 10574 10578 10579 10578 10580 10579 10575 10576 10573 10573 10571 10566 10564 10565 10552 10552 10549 10545 10538 10527 10521 10515 10509 10498
10471 10475 10482 10487 10493 10498 10505 10512 10515 10518 10523 10529 10532 10534 10537 10539 10540 10543 10545 10549 10546 10551 10553 10556 10559 10557 10561 10559 10558 10556 10553 10553 10550 10549 10547 10546 10544 10533 10536 10529 10525 10517 10509 10502 10498 10489 10479
10433 10439 10444 10451 10456 10467 10472 10478 10484 10490 10497 10504 10506 10510 10512 10517 10521 10522 10524 10527 10527 10532 10534 10535 10536 10539 10535 10536 10537 10537 10533 10531 10530 10527 10526 10527 10520 10518 10514 10510 10503 10497 10482 10477 10476 10471 10464
10395 10400 10406 10413 10419 10429 10436 10445 10455 10463 10470 10473 10479 10482 10488 10493 10496 10500 10503 10504 10507 10511 10512 10516 10513 10514 10515 10514 10515 10512 10511 10511 10510 10507 10504 10503 10499 10497 10494 10490 10482 10483 10458 10453 10455 10453 10450
10355 10359 10369 10375 10381 10389 10399 10411 10424 10434 10439 10446 10451 10454 10461 10468 10473 10479 10477 10482 10486 10490 10487 10495 10494 10491 10491 10493 10493 10495 10488 10488 10486 10483 10482 10475 10479 10477 10475 10469 10458 10453 10446 10440 10435 10435 10437
10322 10327 10332 10336 10344 10358 10360 10378 10391 10404 10409 10417 10423 10427 10434 10442 10448 10450 10456 10459 10462 10466 10469 10473 10471 10471 10471 10470 10472 10476 10467 10467 10461 10459 10457 10457 10457 10456 10453 10449 10438 10428 10423 10424 10420 10417 10423
10294 10300 10304 10310 10314 10323 10333 10344 10354 10368 10377 10386 10394 10402 10406 10418 10419 10426 10431 10436 10440 10441 10443 10452 10454 10447 10449 10448 10449 10454 10456 10443 10436 10435 10435 10439 10440 10433 10427 10430 10416 10411 10404 10408 10404 10405 10409
10272 10277 10282 10286 10293 10301 10309 10319 10327 10336 10345 10356 10363 10373 10383 10387 10398 10400 10407 10411 10418 10418 10422 10431 10427 10424 10426 10425 10428 10430 10430 10423 10413 10414 10422 10417 10423 10407 10412 10408 10399 10396 10384 10386 10393 10391 10399
10257 10259 10264 10269 10279 10282 10287 10297 10304 10314 10324 10332 10338 10348 10358 10366 10372 10379 10385 10388 10391 10398 10400 10403 10402 10405 10399 10402 10406 10406 10405 10395 10386 10393 10395 10390 10409 10390 10384 10378 10386 10376 10371 10369 10380 10379 10388
10241 10242 10247 10253 10260 10264 10269 10277 10287 10294 10303 10312 10317 10327 10337 10345 10352 10356 10362 10365 10369 10372 10374 10378 10380 10385 10379 10382 10381 10383 10380 10370 10365 10370 10369 10362 10378 10368 10356 10359 10366 10358 10356 10359 10362 10366 10374
10227 10230 10234 10239 10244 10250 10255 10263 10271 10278 10287 10295 10303 10310 10319 10326 10334 10338 10343 10348 10348 10350 10356 10357 10358 10361 10361 10357 10357 10360 10361 10355 10346 10349 10343 10342 10350 10360 10336 10337 10343 10341 10344 10345 10349 10355 10363
10214 10217 10221 10227 10232 10237 10243 10250 10257 10264 10273 10278 10286 10297 10302 10312 10317 10322 10326 10329 10333 10333 10338 10337 10340 10338 10339 10339 10337 10334 10333 10333 10331 10323 10324 10316 10324 10336 10330 10315 10326 10326 10325 10330 10336 10340 10352
10203 10206 10209 10214 10222 10226 10232 10238 10245 10254 10262 10270 10276 10285 10292 10299 10302 10306 10309 10314 10316 10318 10320 10321 10324 10320 10321 10320 10318 10316 10313 10310 10309 10301 10301 10299 10303 10310 10314 10304 10300 10314 10315 10319 10325 10330 10341
10190 10195 10200 10204 10210 10216 10222 10228 10234 10242 10249 10257 10264 10271 10279 10284 10288 10292 10296 10299 10302 10304 10304 10306 10305 10303 10303 10301 10300 10298 10292 10290 10286 10284 10282 10283 10283 10287 10295 10287 10283 10297 10300 10306 10313 10319 10329
10178 10183 10189 10194 10199 10205 10211 10217 10223 10230 10237 10244 10250 10256 10264 10270 10275 10277 10282 10286 10286 10289 10288 10289 10286 10287 10284 10282 10280 10277 10273 10273 10268 10263 10261 10265 10264 10269 10272 10265 10267 10282 10289 10292 10299 10307 10314
10168 10173 10179 10184 10190 10195 10201 10208 10213 10221 10226 10232 10239 10246 10251 10256 10261 10264 10268 10272 10273 10271 10273 10272 10269 10267 10265 10265 10262 10258 10257 10255 10251 10245 10244 10247 10245 10250 10248 10245 10257 10270 10273 10277 10285 10294 10302
10157 10162 10168 10175 10180 10186 10191 10198 10205 10211 10217 10222 10229 10234 10238 10243 10248 10250 10253 10255 10256 10256 10254 10255 10253 10250 10249 10246 10244 10242 10242 10238 10236 10232 10229 10231 10229 10233 10229 10232 10246 10257 10256 10263 10271 10280 10292
10146 10153 10159 10166 10172 10177 10183 10189 10195 10201 10207 10212 10218 10222 10226 10229 10233 10235 10238 10239 10241 10240 10240 10238 10238 10236 10233 10232 10230 10229 10228 10223 10222 10216 10215 10213 10214 10216 10217 10225 10238 10232 10242 10249 10259 10270 10278
10136 10143 10149 10156 10162 10168 10175 10181 10186 10191 10197 10201 10205 10209 10213 10217 10221 10224 10225 10226 10227 10226 10224 10224 10222 10222 10221 10220 10218 10216 10213 10208 10205 10203 10200 10201 10201 10205 10209 10215 10217 10221 10231 10239 10248 10255 10263
10126 10133 10140 10147 10152 10160 10166 10172 10177 10182 10187 10191 10195 10198 10203 10206 10209 10212 10213 10214 10214 10212 10212 10211 10209 10208 10208 10207 10205 10202 10200 10196 10193 10190 10190 10191 10193 10196 10200 10205 10209 10212 10219 10230 10235 10245 10254
10115 10124 10131 10137 10144 10151 10157 10163 10168 10173 10177 10180 10184 10188 10193 10196 10199 10200 10201 10202 10200 10199 10200 10199 10198 10197 10195 10193 10190 10189 10188 10183 10183 10182 10181 10183 10184 10187 10191 10194 10194 10200 10205 10219 10226 10239 10245
10105 10113 10120 10129 10135 10141 10148 10154 10159 10164 10168 10172 10175 10180 10184 10186 10187 10190 10190 10190 10188 10188 10188 10188 10187 10185 10184 10181 10179 10178 10178 10174 10173 10172 10172 10174 10177 10179 10182 10184 10188 10194 10200 10212 10218 10223 10233
10096 10104 10111 10119 10127 10133 10139 10145 10150 10154 10159 10162 10167 10170 10173 10175 10178 10179 10178 10178 10177 10177 10176 10175 10174 10173 10172 10169 10170 10167 10167 10166 10165 10164 10165 10166 10168 10171 10174 10177 10183 10188 10195 10202 10210 10217 10226